Time,TemperatureF,DewpointF,PressureIn,WindDirection,WindDirectionDegrees,WindSpeedMPH,WindSpeedGustMPH,Humidity,HourlyPrecipIn,Conditions,Clouds,dailyrainin,SoftwareType,DateUTC
2013-04-11 10:02:00,48.0,46.0,29.98,NE,37,7.0,-999.0,94,0.00,,,-99.99,,2013-04-11 14:02:00,
2013-04-11 10:12:00,48.0,46.0,29.99,NNE,27,5.0,-999.0,94,0.00,,,-99.99,,2013-04-11 14:12:00,
2013-04-11 10:22:00,48.0,46.0,29.99,NNE,27,5.0,-999.0,94,0.00,,,-99.99,,2013-04-11 14:22:00,
2013-04-11 10:32:00,48.0,46.0,29.99,East,89,2.0,-999.0,93,0.00,,,-99.99,,2013-04-11 14:32:00,
2013-04-11 10:42:00,48.0,46.0,29.99,East,89,2.0,-999.0,93,0.00,,,-99.99,,2013-04-11 14:42:00,
2013-04-11 10:53:00,49.0,47.0,29.98,East,98,3.0,-999.0,92,0.00,,,-99.99,,2013-04-11 14:53:00,
2013-04-11 11:02:00,50.0,46.0,29.99,East,84,4.0,-999.0,86,0.00,,,-99.99,,2013-04-11 15:02:00,
2013-04-11 11:12:00,50.0,45.0,30.00,NNE,17,5.0,-999.0,82,0.00,,,-99.99,,2013-04-11 15:12:00,
2013-04-11 11:22:00,50.0,45.0,30.00,NNE,17,5.0,-999.0,82,0.00,,,-99.99,,2013-04-11 15:22:00,
2013-04-11 11:32:00,50.0,44.0,29.99,NE,44,5.0,-999.0,81,0.00,,,-99.99,,2013-04-11 15:32:00,
2013-04-11 11:43:00,51.0,45.0,29.99,NE,41,3.0,-999.0,81,0.00,,,-99.99,,2013-04-11 15:43:00,
2013-04-11 11:53:00,51.0,45.0,29.99,NE,41,3.0,-999.0,81,0.00,,,-99.99,,2013-04-11 15:53:00,
2013-04-11 12:02:00,52.0,46.0,30.01,East,89,2.0,-999.0,80,0.00,,,-99.99,,2013-04-11 16:02:00,
2013-04-11 12:13:00,52.0,46.0,30.01,East,89,2.0,-999.0,80,0.00,,,-99.99,,2013-04-11 16:13:00,
2013-04-11 12:23:00,52.0,46.0,30.02,South,179,2.0,-999.0,79,0.00,,,-99.99,,2013-04-11 16:23:00,
2013-04-11 12:32:00,52.0,46.0,30.02,ESE,118,2.0,-999.0,79,0.00,,,-99.99,,2013-04-11 16:32:00,
2013-04-11 12:42:00,52.0,46.0,30.03,SE,146,3.0,-999.0,79,0.00,,,-99.99,,2013-04-11 16:42:00,
2013-04-11 12:53:00,52.0,46.0,30.03,SE,146,3.0,-999.0,79,0.00,,,-99.99,,2013-04-11 16:53:00,
2013-04-11 13:02:00,51.0,45.0,30.02,ESE,111,7.0,-999.0,79,0.00,,,-99.99,,2013-04-11 17:02:00,
2013-04-11 13:13:00,51.0,45.0,30.01,NE,46,1.0,-999.0,79,0.00,,,-99.99,,2013-04-11 17:13:00,
2013-04-11 13:23:00,51.0,45.0,30.01,NE,46,1.0,-999.0,79,0.00,,,-99.99,,2013-04-11 17:23:00,
2013-04-11 13:33:00,51.0,44.0,30.02,SE,142,2.0,-999.0,78,0.00,,,-99.99,,2013-04-11 17:33:00,
2013-04-11 13:43:00,51.0,44.0,30.02,SE,142,2.0,-999.0,78,0.00,,,-99.99,,2013-04-11 17:43:00,
2013-04-11 13:52:00,51.0,43.0,30.02,East,89,7.0,-999.0,75,0.00,,,-99.99,,2013-04-11 17:52:00,
2013-04-11 14:03:00,51.0,43.0,30.01,ESE,108,6.0,-999.0,73,0.00,,,-99.99,,2013-04-11 18:03:00,
2013-04-11 14:13:00,51.0,43.0,30.01,ESE,108,6.0,-999.0,73,0.00,,,-99.99,,2013-04-11 18:13:00,
2013-04-11 14:23:00,52.0,43.0,30.02,SE,134,2.0,-999.0,72,0.00,,,-99.99,,2013-04-11 18:23:00,
2013-04-11 14:33:00,52.0,43.0,30.02,SE,146,5.0,-999.0,72,0.00,,,-99.99,,2013-04-11 18:33:00,
2013-04-11 14:42:00,52.0,43.0,30.02,SE,146,5.0,-999.0,72,0.00,,,-99.99,,2013-04-11 18:42:00,
2013-04-11 14:52:00,53.0,44.0,30.01,SSE,152,4.0,-999.0,72,0.00,,,-99.99,,2013-04-11 18:52:00,
2013-04-11 15:04:00,53.0,43.0,30.01,East,94,4.0,-999.0,70,0.00,,,-99.99,,2013-04-11 19:04:00,
2013-04-11 15:14:00,53.0,43.0,30.01,East,94,4.0,-999.0,70,0.00,,,-99.99,,2013-04-11 19:14:00,
2013-04-11 15:22:00,55.0,47.0,30.01,SE,139,3.0,-999.0,73,0.00,,,-99.99,,2013-04-11 19:22:00,
2013-04-11 15:32:00,55.0,46.0,30.01,SE,128,6.0,-999.0,72,0.00,,,-99.99,,2013-04-11 19:32:00,
2013-04-11 15:43:00,55.0,46.0,30.01,SE,128,6.0,-999.0,72,0.00,,,-99.99,,2013-04-11 19:43:00,
2013-04-11 15:53:00,55.0,45.0,30.01,SSE,162,4.0,-999.0,70,0.00,,,-99.99,,2013-04-11 19:53:00,
2013-04-11 16:02:00,54.0,44.0,30.00,SE,135,4.0,-999.0,69,0.00,,,-99.99,,2013-04-11 20:02:00,
2013-04-11 16:13:00,53.0,43.0,30.01,ESE,108,3.0,-999.0,70,0.00,,,-99.99,,2013-04-11 20:13:00,
2013-04-11 16:22:00,53.0,43.0,30.01,ESE,108,3.0,-999.0,70,0.00,,,-99.99,,2013-04-11 20:22:00,
2013-04-11 16:33:00,54.0,44.0,30.01,SE,134,3.0,-999.0,70,0.00,,,-99.99,,2013-04-11 20:33:00,
2013-04-11 16:42:00,54.0,44.0,30.01,SE,134,3.0,-999.0,70,0.00,,,-99.99,,2013-04-11 20:42:00,
2013-04-11 16:52:00,52.0,43.0,30.01,ENE,75,2.0,-999.0,71,0.00,,,-99.99,,2013-04-11 20:52:00,
2013-04-11 17:03:00,52.0,43.0,30.02,East,100,1.0,-999.0,72,0.00,,,-99.99,,2013-04-11 21:03:00,
2013-04-11 17:12:00,52.0,43.0,30.02,East,100,1.0,-999.0,72,0.00,,,-99.99,,2013-04-11 21:12:00,
2013-04-11 17:22:00,51.0,42.0,30.02,WNW,291,2.0,-999.0,71,0.00,,,-99.99,,2013-04-11 21:22:00,
2013-04-11 17:33:00,50.0,37.0,30.03,NW,315,5.0,-999.0,61,0.00,,,-99.99,,2013-04-11 21:33:00,
2013-04-11 17:42:00,50.0,37.0,30.03,NW,315,5.0,-999.0,61,0.00,,,-99.99,,2013-04-11 21:42:00,
2013-04-11 17:54:00,49.0,36.0,30.03,North,0,1.0,-999.0,60,0.00,,,-99.99,,2013-04-11 21:54:00,
2013-04-11 18:03:00,48.0,34.0,30.05,North,3,3.0,-999.0,57,0.00,,,-99.99,,2013-04-11 22:03:00,
2013-04-11 18:13:00,48.0,34.0,30.05,North,3,3.0,-999.0,57,0.00,,,-99.99,,2013-04-11 22:13:00,
2013-04-11 18:23:00,47.0,33.0,30.06,NW,307,5.0,-999.0,57,0.00,,,-99.99,,2013-04-11 22:23:00,
2013-04-11 18:33:00,47.0,33.0,30.06,NW,319,4.0,-999.0,57,0.00,,,-99.99,,2013-04-11 22:33:00,
2013-04-11 18:44:00,47.0,33.0,30.06,NW,319,4.0,-999.0,57,0.00,,,-99.99,,2013-04-11 22:44:00,
2013-04-11 18:53:00,45.0,32.0,30.07,NNW,330,6.0,-999.0,60,0.00,,,-99.99,,2013-04-11 22:53:00,
2013-04-11 19:03:00,45.0,34.0,30.07,WSW,252,1.0,-999.0,65,0.00,,,-99.99,,2013-04-11 23:03:00,
2013-04-11 19:13:00,45.0,34.0,30.07,WSW,252,1.0,-999.0,65,0.00,,,-99.99,,2013-04-11 23:13:00,
2013-04-11 19:23:00,45.0,34.0,30.08,NNW,340,2.0,-999.0,65,0.00,,,-99.99,,2013-04-11 23:23:00,
2013-04-11 19:33:00,44.0,33.0,30.07,WNW,285,2.0,-999.0,65,0.00,,,-99.99,,2013-04-11 23:33:00,
2013-04-11 19:42:00,44.0,33.0,30.07,WNW,285,2.0,-999.0,65,0.00,,,-99.99,,2013-04-11 23:42:00,
2013-04-11 19:53:00,44.0,33.0,30.07,WNW,298,2.0,-999.0,64,0.00,,,-99.99,,2013-04-11 23:53:00,
2013-04-11 20:02:00,44.0,34.0,30.08,WNW,297,2.0,-999.0,67,0.00,,,-99.99,,2013-04-12 00:02:00,
2013-04-11 20:12:00,44.0,34.0,30.08,WNW,297,2.0,-999.0,67,0.00,,,-99.99,,2013-04-12 00:12:00,
2013-04-11 20:22:00,44.0,35.0,30.08,WNW,284,0.0,-999.0,71,0.00,,,-99.99,,2013-04-12 00:22:00,
2013-04-11 20:33:00,43.0,34.0,30.08,NNW,336,2.0,-999.0,70,0.00,,,-99.99,,2013-04-12 00:33:00,
2013-04-11 20:42:00,43.0,34.0,30.08,NNW,336,2.0,-999.0,70,0.00,,,-99.99,,2013-04-12 00:42:00,
2013-04-11 20:52:00,43.0,35.0,30.09,SW,226,1.0,-999.0,72,0.00,,,-99.99,,2013-04-12 00:52:00,
2013-04-11 21:02:00,43.0,35.0,30.09,NE,44,0.0,-999.0,73,0.00,,,-99.99,,2013-04-12 01:02:00,
2013-04-11 21:12:00,43.0,35.0,30.09,NE,44,0.0,-999.0,73,0.00,,,-99.99,,2013-04-12 01:12:00,
2013-04-11 21:22:00,43.0,35.0,30.10,NE,55,2.0,-999.0,73,0.00,,,-99.99,,2013-04-12 01:22:00,
2013-04-11 21:32:00,43.0,35.0,30.10,North,354,1.0,-999.0,73,0.00,,,-99.99,,2013-04-12 01:32:00,
2013-04-11 21:42:00,43.0,35.0,30.10,North,354,1.0,-999.0,73,0.00,,,-99.99,,2013-04-12 01:42:00,
2013-04-11 21:52:00,43.0,36.0,30.09,NE,44,0.0,-999.0,75,0.00,,,-99.99,,2013-04-12 01:52:00,
2013-04-11 22:03:00,42.0,35.0,30.11,NW,315,3.0,-999.0,77,0.01,,,-99.99,,2013-04-12 02:03:00,
2013-04-11 22:12:00,42.0,35.0,30.11,NW,315,3.0,-999.0,77,0.01,,,-99.99,,2013-04-12 02:12:00,
2013-04-11 22:22:00,42.0,36.0,30.12,NW,312,2.0,-999.0,78,0.01,,,-99.99,,2013-04-12 02:22:00,
2013-04-11 22:32:00,42.0,36.0,30.12,North,0,1.0,-999.0,79,0.01,,,-99.99,,2013-04-12 02:32:00,
2013-04-11 22:42:00,42.0,36.0,30.12,North,0,1.0,-999.0,79,0.01,,,-99.99,,2013-04-12 02:42:00,
2013-04-11 22:52:00,42.0,37.0,30.13,North,1,3.0,-999.0,82,0.01,,,-99.99,,2013-04-12 02:52:00,
2013-04-11 23:02:00,42.0,37.0,30.13,South,179,0.0,-999.0,81,0.01,,,-99.99,,2013-04-12 03:02:00,
2013-04-11 23:12:00,42.0,37.0,30.13,South,179,0.0,-999.0,81,0.01,,,-99.99,,2013-04-12 03:12:00,
2013-04-11 23:22:00,42.0,37.0,30.13,South,179,0.0,-999.0,82,0.01,,,-99.99,,2013-04-12 03:22:00,
2013-04-11 23:33:00,42.0,38.0,30.12,SE,134,0.0,-999.0,84,0.01,,,-99.99,,2013-04-12 03:33:00,
2013-04-11 23:43:00,42.0,38.0,30.12,SE,134,0.0,-999.0,84,0.01,,,-99.99,,2013-04-12 03:43:00,
2013-04-11 23:53:00,42.0,37.0,30.13,North,0,0.0,-999.0,82,0.01,,,-99.99,,2013-04-12 03:53:00,